Hlavní strana
METAR-TAF:

METAR-TAF

Letiště :

Clinton, Severní Karolína, Spojené státy americké

zeměpisná šířka: 34-58-32N, zeměpisná délka: 078-21-53W, výška: 45 m

Aktuální stav počasí

Zpráva byla vytvořena před 29 minutami, v 18:55 UTC
Bezvětří
Teplota 31°C
Vlhkost vzduchu 55%
Tlak 1017 hPa
Viditelnost: 16.1 km
Jasno

METAR: KCTZ 251855Z AUTO 00000KT 10SM CLR 31/21 A3002 RMK AO2 T03140211

Čas: 15:24 (19:24 UTC)


TAF: chybějící

Stav a předpovědi počasí z více než 4 000 letišť (zprávy METAR a TAF).

Červené a žluté tečky na mapě představují dostupné meteorologické stanice.

Když kurzor umístíte na tečku, zobrazí se název stanice.

Pak kliknutím zobrazíte stav a předpověď počasí.

Chcete-li změnit mapu, kliknutím na zelené tlačítko se znaménkem +mapu přiblížíte, kliknutím na zelené tlačítko se znaménkem – mapu oddálíte a kliknutím na zelené šipky přejdete na sousední mapy.


METAR-TAF: